Theta_e
314 315 315 315 315 313 311 310 310 308 306 304 303 301 300 300 300 300 300 300 299 300 299 299 299 300 300 300 300 300 300 300 300 300 301 302 305 306 307 311 314 316 318 320 320 320 321 320 320 319 319 319 319 319 318 319 319 319 320 320 320 319 319 319 319 320 319 319 320 320 321 322 322 322 322 322 322 323 324 324 325 325 325 325 326
313 313 312 313 312 311 309 308 306 305 303 302 301 300 300 300 300 300 300 300 299 299 299 299 299 299 299 300 299 298 299 299 300 300 301 301 304 306 303 307 311 314 316 318 319 320 320 319 318 318 318 318 318 317 318 318 318 318 318 318 318 318 318 318 318 318 318 318 319 319 319 320 320 320 321 321 321 322 322 323 323 323 324 324 324
311 311 310 311 310 309 307 306 304 303 302 301 301 301 300 300 300 299 299 299 299 298 298 299 299 298 299 299 299 298 299 299 299 300 300 300 302 305 304 303 307 311 314 315 316 317 317 317 317 317 318 318 317 317 317 317 317 317 317 317 317 318 317 317 317 317 317 318 318 318 318 319 319 319 320 320 320 321 321 321 321 322 322 322 322
310 309 309 309 308 307 306 304 303 301 301 301 300 301 300 301 302 301 301 300 298 298 299 298 298 298 298 298 298 298 298 299 299 299 299 300 301 302 304 304 303 307 309 312 313 314 315 315 316 316 317 317 317 316 316 316 316 317 316 316 316 316 316 316 316 316 316 316 316 317 317 318 318 318 318 318 319 319 319 320 321 321 321 321 321
308 308 307 307 306 305 304 303 302 301 300 301 301 301 300 299 299 299 299 299 298 298 300 298 298 297 298 298 297 298 298 298 298 298 299 300 300 300 301 301 304 303 304 306 309 311 312 313 314 315 316 316 315 315 315 314 315 315 316 316 316 316 316 315 315 314 314 315 315 316 316 316 317 317 317 318 318 318 318 318 319 319 319 320 320
307 306 305 305 305 304 303 301 301 301 300 300 299 298 298 298 297 297 297 297 297 297 296 297 297 297 297 297 297 297 298 298 297 297 298 299 299 300 299 298 299 303 303 302 304 306 309 310 311 312 313 313 313 314 314 314 314 315 316 315 315 315 314 314 314 314 315 315 315 315 315 316 316 316 316 316 316 316 317 317 317 318 318 318 318
306 305 304 303 303 302 302 301 301 300 299 299 298 298 298 298 296 296 296 297 298 297 298 297 296 297 296 296 296 297 297 297 297 297 297 297 298 299 299 297 297 298 300 300 300 301 303 306 308 310 311 311 312 312 312 313 314 315 315 314 314 314 313 313 313 314 314 314 315 315 314 315 315 315 315 315 315 315 316 316 316 316 316 317 317
304 304 303 302 301 301 301 301 300 299 299 299 299 297 297 298 297 298 295 296 297 296 297 297 297 297 296 296 296 296 296 296 296 296 296 296 296 297 297 297 297 296 297 297 297 298 299 301 303 305 306 307 309 311 312 313 314 314 314 313 313 313 313 313 313 314 314 313 313 313 313 313 314 314 314 314 314 314 314 314 314 315 315 315 316
303 303 302 301 300 300 300 301 300 298 299 298 297 298 298 298 297 298 297 296 296 296 296 296 296 296 295 296 296 296 296 296 296 295 297 296 295 296 296 296 295 296 295 295 295 295 295 296 298 300 301 303 305 307 310 311 312 313 313 313 312 313 312 312 313 313 312 312 312 312 312 312 312 312 312 312 312 312 313 313 313 313 313 314 314
303 302 301 301 300 300 300 300 299 299 298 297 297 298 298 297 295 296 297 296 295 295 295 296 296 295 294 295 295 295 296 296 295 294 295 295 295 295 295 295 295 295 295 295 295 295 295 293 293 295 296 299 302 304 307 310 311 312 312 313 313 313 312 312 311 311 311 310 310 311 310 311 311 311 311 312 312 312 312 312 312 312 313 313 314
302 301 301 300 299 299 299 299 298 298 298 297 297 297 297 297 296 295 296 297 296 296 296 296 295 295 294 293 294 295 295 296 294 295 294 295 295 295 295 294 295 295 295 295 294 295 295 295 294 295 294 295 298 300 302 306 308 309 311 312 312 312 311 310 310 309 309 309 309 308 309 310 310 310 311 311 311 311 311 312 312 312 313 313 313
301 301 300 299 299 298 298 299 298 298 297 296 296 295 295 296 296 295 294 294 296 297 296 294 294 293 292 292 293 293 294 293 294 294 294 295 294 293 294 294 294 294 294 294 294 294 294 294 293 294 294 293 293 295 298 300 302 307 309 311 311 311 310 309 309 309 308 308 308 308 308 308 309 309 309 310 310 310 310 311 311 312 312 312 312
301 300 299 298 298 298 298 297 298 297 297 297 297 296 296 296 296 295 294 293 293 296 296 296 293 292 292 292 292 292 292 293 293 293 293 293 293 293 293 293 294 294 294 294 294 294 293 293 293 293 293 295 293 291 293 295 297 305 308 309 310 311 310 309 308 307 307 307 307 307 307 307 308 308 308 308 308 309 309 309 310 311 311 311 311
300 300 299 299 297 297 297 296 297 297 297 298 298 297 296 295 295 294 295 293 292 294 296 295 293 292 290 290 290 291 291 291 291 292 293 293 293 294 293 293 293 293 293 293 293 293 293 292 293 293 293 293 294 294 294 294 295 298 306 309 309 309 309 308 307 307 306 306 306 306 306 307 307 307 307 308 308 308 308 309 309 309 310 310 310
300 300 299 298 297 296 296 296 297 297 297 297 297 296 295 295 294 293 292 295 294 295 295 297 293 296 295 292 290 289 290 289 291 291 291 292 292 293 293 293 293 293 293 292 292 292 292 292 292 292 292 293 293 293 292 292 291 293 298 300 305 307 307 307 306 306 305 305 305 305 305 305 306 306 307 307 307 307 307 308 308 309 309 309 310
300 299 298 298 297 296 296 296 296 297 297 296 295 295 294 294 294 294 293 291 292 291 295 296 297 295 291 292 293 292 290 289 289 290 291 291 291 291 292 292 292 292 293 292 292 292 291 292 291 291 291 292 292 292 293 292 290 291 292 295 300 302 305 305 305 305 303 304 304 304 305 305 305 305 306 306 306 306 306 307 307 308 308 309 309
300 299 298 298 298 297 296 296 296 296 297 296 295 295 295 295 294 294 293 292 291 291 292 295 295 298 297 291 289 289 292 294 290 290 290 289 290 291 291 292 291 291 291 292 292 292 292 291 291 291 291 291 292 292 292 292 293 294 296 296 297 296 299 303 303 303 303 303 304 303 304 304 304 305 305 306 306 305 306 306 307 308 308 308 308
299 299 298 297 297 297 297 296 296 296 296 296 296 295 295 294 294 294 294 294 293 292 290 292 294 295 295 298 299 295 294 292 291 288 290 291 292 291 291 291 292 291 291 291 292 292 291 291 291 291 290 291 291 292 292 291 291 294 296 297 298 297 297 297 300 301 301 302 303 303 303 303 303 304 304 304 305 305 305 306 306 307 307 307 308
299 298 298 297 297 297 297 296 296 296 296 296 295 295 295 295 295 294 294 295 296 292 292 291 291 291 293 294 295 291 298 292 290 294 287 289 289 290 290 291 291 291 291 291 291 291 291 291 291 290 290 290 291 291 292 291 289 290 289 294 297 297 296 295 296 297 298 300 302 302 303 302 302 303 303 303 304 304 305 305 306 306 306 307 307
298 298 297 297 297 297 297 296 295 295 295 295 295 295 295 295 295 294 295 294 296 293 293 292 289 290 292 291 290 292 294 296 299 295 294 290 288 290 291 290 290 290 290 291 291 290 291 290 290 290 290 290 290 291 291 291 291 291 293 294 295 297 295 294 295 294 294 297 299 300 301 302 302 302 302 302 303 304 304 305 305 306 306 306 306
298 297 297 297 296 296 296 296 295 295 294 295 295 296 295 294 293 293 294 293 295 295 295 293 292 292 290 290 292 291 292 294 294 296 295 293 292 289 288 289 289 289 290 291 291 291 291 290 290 290 290 290 290 291 290 291 290 291 291 292 294 294 294 293 294 293 293 294 296 297 299 300 301 301 301 302 302 303 304 304 305 305 305 305 306
296 297 297 297 296 296 296 295 295 295 293 294 295 296 295 295 294 293 293 294 294 294 295 296 294 295 293 293 291 291 291 290 291 292 293 296 294 291 291 288 286 288 290 290 290 290 290 290 289 289 289 290 290 290 290 290 290 291 291 291 291 291 291 292 292 292 292 294 294 295 296 298 298 299 300 301 302 303 303 304 304 304 304 305 305
296 296 296 296 296 296 295 295 295 294 293 294 294 294 294 294 294 294 293 293 293 293 295 297 295 296 294 293 292 291 291 290 290 292 292 291 291 293 293 292 291 290 289 290 290 290 290 289 289 289 289 289 290 290 290 290 289 289 289 290 289 289 290 292 291 290 292 293 293 293 294 294 296 297 298 300 301 302 302 303 302 303 303 304 304
295 295 295 296 296 295 295 295 294 294 293 293 294 294 294 294 294 293 293 293 294 293 293 294 295 295 295 294 294 294 294 294 294 293 293 293 293 292 291 291 290 291 289 288 289 289 289 289 289 289 289 289 289 289 289 290 289 288 289 287 288 287 289 290 289 290 291 292 292 292 293 293 294 295 296 298 300 301 301 302 302 302 303 303 303
294 294 295 295 295 295 294 293 293 293 293 293 294 294 294 293 293 293 293 293 292 293 292 293 294 293 293 294 294 295 295 296 297 295 295 296 294 292 292 291 289 288 288 287 287 287 288 288 289 289 289 289 289 289 289 289 290 288 287 286 284 285 285 286 287 289 290 291 291 292 292 293 293 294 295 296 298 299 300 300 300 301 302 302 302
295 294 295 295 295 295 295 294 294 294 293 293 293 294 294 293 293 292 292 292 292 292 292 293 294 294 294 294 293 294 295 297 297 296 295 294 293 292 290 288 289 289 287 286 287 285 286 287 289 288 288 289 288 289 289 289 290 286 285 288 286 284 284 286 287 289 290 290 291 291 291 291 292 293 294 295 296 297 298 299 299 300 301 301 302
295 296 296 295 295 295 295 294 294 294 294 293 293 293 293 292 292 292 292 292 292 292 291 292 293 293 294 293 293 294 294 296 295 295 296 295 294 293 290 286 284 286 285 286 286 285 287 286 287 287 288 288 288 288 288 289 289 286 284 286 287 284 284 286 288 288 289 290 290 290 290 290 290 292 292 293 294 294 296 297 298 298 299 299 299
297 296 296 295 295 294 294 294 294 294 294 293 293 292 292 291 291 291 291 292 291 291 291 292 292 293 293 293 292 292 293 294 293 294 295 295 295 295 293 291 288 284 285 284 284 284 288 285 286 287 287 287 288 288 288 288 289 285 284 287 287 286 284 285 286 288 289 289 289 289 289 289 290 290 291 292 292 292 293 294 295 295 295 296 296
297 296 296 295 295 294 294 294 294 293 293 292 292 292 291 291 290 290 290 291 290 291 290 290 291 292 291 292 291 292 292 293 292 293 294 294 295 294 294 292 292 290 285 283 284 284 286 286 284 285 287 287 287 288 287 287 287 285 287 286 286 286 284 284 285 287 288 288 289 289 289 289 289 290 290 291 291 292 293 294 294 294 294 294 295
296 297 296 295 294 293 293 293 293 293 292 292 292 291 291 290 290 290 290 291 290 290 290 290 290 291 291 291 291 291 292 291 291 291 292 292 293 293 293 294 294 291 290 287 287 287 286 286 286 285 286 286 287 287 287 286 285 284 286 286 285 285 284 283 284 286 287 287 287 288 288 288 289 289 290 290 291 292 292 293 293 293 293 294 294
295 295 295 294 294 293 293 292 292 292 292 291 291 291 290 289 289 289 289 290 289 288 289 289 289 290 289 289 290 290 291 290 290 290 290 291 291 291 291 293 292 293 292 290 288 286 288 284 285 287 285 285 286 286 286 286 284 283 284 284 284 284 282 283 283 284 285 286 286 286 287 288 288 289 289 290 290 291 292 292 292 292 292 293 294
295 295 294 293 293 293 292 292 292 291 291 291 290 290 289 289 289 288 288 288 287 287 288 288 288 288 288 287 288 288 289 289 288 289 289 289 290 290 290 290 290 290 290 289 288 286 285 285 285 285 285 285 285 284 284 285 284 282 283 283 284 282 282 284 283 284 284 284 285 286 287 288 288 289 289 289 290 291 291 291 291 292 292 292 293
294 294 293 293 293 293 292 291 291 291 291 290 290 289 289 288 288 288 288 287 287 287 287 287 287 287 287 287 287 287 288 288 288 288 288 288 288 288 288 288 288 287 287 287 286 284 282 284 286 284 284 285 283 284 283 283 283 283 282 283 283 283 283 284 284 283 283 284 285 286 286 287 288 289 289 289 289 289 290 290 291 290 291 292 292
294 293 293 293 293 292 292 291 291 291 291 290 290 289 288 287 287 287 287 286 286 286 286 285 286 285 286 285 286 286 287 286 287 286 287 286 286 286 286 286 285 285 286 285 285 285 281 281 282 284 283 284 282 284 282 282 282 283 282 282 283 283 283 283 284 285 284 284 284 285 286 287 288 289 289 289 288 289 289 290 290 290 290 291 291
293 293 292 292 292 292 292 291 291 291 291 290 290 289 288 287 287 286 286 286 285 285 285 285 285 285 284 284 284 285 286 284 285 285 286 285 285 284 284 284 284 284 284 285 285 284 282 280 282 281 281 281 281 282 282 282 282 282 281 282 282 283 283 283 283 284 284 284 284 285 286 287 287 288 287 287 287 288 288 289 289 289 289 290 290
292 292 292 291 291 291 290 290 290 290 290 290 289 288 288 287 287 286 286 285 285 285 285 285 285 284 284 283 284 284 284 283 283 284 284 284 283 283 283 283 283 283 283 283 284 285 283 279 279 280 281 280 280 282 282 281 280 280 280 282 282 282 282 283 283 283 284 284 285 285 286 286 286 286 286 286 287 287 288 288 288 289 289 289 289
291 291 291 291 290 290 289 289 289 289 289 289 289 288 288 287 287 286 286 285 285 285 285 285 285 284 284 283 283 283 283 282 283 283 283 282 283 283 282 282 282 282 281 282 282 283 283 281 280 280 281 280 281 281 280 279 279 280 280 280 281 281 282 283 283 284 283 284 284 284 284 284 284 285 285 286 286 287 287 288 288 288 288 288 288
291 291 290 290 289 289 289 288 289 289 289 289 288 288 287 287 286 286 285 285 285 284 284 284 284 284 284 283 283 283 282 281 282 282 282 282 282 282 282 282 282 282 281 281 281 281 281 281 280 277 278 278 278 278 279 279 279 279 280 280 281 281 281 281 283 283 284 283 283 283 283 283 283 284 284 285 286 286 286 287 287 287 287 287 286
290 290 289 288 289 288 288 288 288 288 288 288 288 288 287 287 286 285 285 285 285 285 284 283 283 284 284 284 283 283 283 283 283 282 282 281 281 281 282 281 281 281 281 280 280 280 279 279 279 278 277 277 278 277 278 279 279 280 279 279 280 282 282 281 282 283 283 283 283 283 283 283 283 284 284 285 285 286 286 286 286 287 286 285 285
289 289 289 289 289 288 288 288 288 288 288 288 288 288 287 287 286 286 285 285 285 285 284 284 284 284 283 283 283 284 284 284 284 283 282 281 281 280 281 281 281 280 280 280 280 279 278 278 278 277 277 277 277 278 280 279 278 278 279 279 279 281 281 282 281 281 282 282 282 283 283 283 283 283 283 284 284 284 284 284 284 284 283 283 284
289 288 288 288 288 288 287 288 287 288 287 287 288 288 287 287 286 286 286 285 285 285 285 284 284 284 284 284 283 284 284 284 284 284 283 283 281 280 281 281 280 280 280 280 279 279 279 278 278 278 276 276 277 276 277 277 278 278 280 280 279 280 280 280 281 281 281 280 281 281 281 282 282 282 282 282 283 282 282 282 283 282 282 283 284
289 289 288 288 287 287 287 287 287 287 287 288 287 288 288 286 286 286 286 286 286 285 285 284 284 284 284 284 284 283 283 283 283 284 285 285 284 283 281 281 281 280 280 279 279 278 278 278 277 277 276 276 276 277 277 278 280 280 280 279 278 279 279 278 279 280 282 281 280 279 281 282 282 281 282 281 282 282 281 281 281 282 282 283 284
288 288 288 287 287 286 286 286 286 286 286 287 287 289 290 289 287 286 285 285 286 285 285 284 284 284 284 284 284 283 283 283 283 284 285 285 285 284 284 283 283 281 280 279 278 278 278 277 278 277 276 276 277 279 279 280 280 280 279 279 279 278 277 277 277 280 282 280 279 279 279 282 282 280 280 280 281 281 281 281 282 283 283 284 284
287 287 287 287 287 287 287 286 286 286 286 287 288 289 290 289 288 286 286 285 285 285 285 284 284 284 284 283 283 284 283 283 283 283 284 284 284 284 284 283 283 284 284 281 279 278 278 277 277 277 277 277 278 278 278 279 278 279 279 279 279 277 277 276 277 277 281 281 279 278 277 281 281 279 278 279 280 280 281 282 283 283 283 284 284
286 286 287 287 287 287 287 286 286 286 286 287 289 289 289 290 289 288 286 285 285 285 285 285 284 284 284 283 283 282 283 283 283 282 281 282 284 284 283 283 283 283 284 283 283 281 280 279 278 278 278 278 277 278 279 279 280 277 278 278 278 277 277 277 277 278 280 282 279 277 276 278 279 278 277 279 280 280 280 282 283 283 284 283 284
285 285 286 286 286 286 286 286 286 286 286 287 288 289 289 289 289 289 286 285 285 285 284 284 284 284 284 283 283 282 282 282 282 281 281 281 281 282 282 281 281 281 283 283 283 281 280 280 280 278 279 280 278 279 280 281 278 277 278 277 277 276 276 277 279 279 281 281 277 277 274 276 277 277 276 278 280 279 280 281 282 282 283 283 283
284 284 285 285 285 285 285 286 286 286 286 287 288 288 289 289 289 289 287 285 285 285 284 284 284 283 283 283 283 282 281 281 281 281 281 281 280 280 280 280 280 280 280 281 281 280 279 279 280 280 280 280 280 281 280 280 280 280 280 278 278 278 278 279 279 279 279 280 278 276 271 275 278 276 276 278 278 278 279 280 282 282 282 282 282
284 285 285 285 285 285 285 285 285 285 286 287 287 287 288 289 289 287 286 285 285 284 284 284 283 283 283 282 282 281 281 280 281 283 282 280 280 279 278 279 279 279 280 281 282 282 280 280 280 280 280 280 281 281 281 280 280 279 279 279 279 277 275 274 273 276 275 278 278 275 272 273 276 275 275 277 278 277 278 278 280 281 282 282 282
283 283 283 284 284 284 284 284 283 284 285 286 286 286 287 288 287 286 286 285 285 284 284 283 282 282 281 281 281 281 280 280 282 283 283 282 279 278 278 278 278 278 278 280 282 282 282 281 282 282 282 282 283 283 283 282 280 280 278 276 274 275 273 272 272 273 273 276 275 275 273 272 274 275 274 276 276 276 276 277 278 280 281 281 282
282 282 283 283 284 284 283 283 283 283 283 284 285 286 286 286 287 286 286 285 285 285 284 284 282 281 281 282 282 281 280 279 282 284 284 282 279 278 278 277 277 277 278 280 280 280 282 282 282 282 282 283 283 283 283 282 282 281 277 274 275 275 272 273 272 273 273 274 274 276 272 271 274 275 273 274 275 275 276 277 278 279 280 280 280
282 282 282 282 282 283 283 283 283 282 282 283 284 285 285 286 286 285 285 285 285 284 284 284 283 281 281 281 282 281 280 280 283 284 284 282 279 278 278 277 276 276 277 279 278 278 279 279 279 280 281 282 281 281 281 282 282 281 278 277 277 274 272 272 272 271 270 272 274 276 271 272 273 274 273 271 270 274 277 277 278 278 277 277 277
Wind_Speed
10 10 9 9 8 7 7 7 6 6 6 5 6 6 5 5 5 5 5 5 5 4 4 3 3 3 3 4 3 3 3 2 2 2 2 2 3 4 8 9 7 6 6 6 5 5 5 6 6 5 5 6 6 5 5 5 5 6 6 7 7 7 9 9 9 9 9 9 9 10 10 10 11 11 11 12 12 12 12 12 12 12 13 13 13
10 9 10 10 8 7 7 7 7 6 6 6 6 6 6 5 5 5 5 5 5 4 4 3 3 3 3 3 3 3 3 3 2 2 3 2 3 4 6 8 9 7 7 7 6 6 7 7 6 4 4 5 6 5 5 5 5 4 5 6 7 7 8 8 8 8 9 9 9 9 9 9 10 10 11 11 11 12 12 12 12 12 12 13 13
10 10 9 9 8 8 8 7 7 6 6 6 5 5 5 5 5 5 5 5 4 4 3 4 3 3 3 3 3 3 3 3 3 3 3 3 3 4 4 7 9 10 7 9 9 9 8 7 6 4 4 5 5 5 5 5 4 4 5 6 6 7 7 8 8 8 8 9 9 9 9 10 10 10 11 11 11 11 12 12 12 12 12 12 13
10 10 10 9 9 9 8 8 7 7 6 6 6 5 5 4 4 3 4 4 4 4 3 4 4 3 3 3 2 3 3 3 3 3 3 3 4 4 4 5 8 10 11 9 9 9 9 9 7 6 6 5 5 5 5 4 4 4 5 5 5 6 7 7 7 7 8 8 8 9 9 10 10 10 11 11 11 12 12 12 12 12 12 13 13
10 10 9 9 9 9 8 8 7 7 6 7 7 5 5 5 4 3 4 4 4 3 2 3 3 3 3 3 3 3 3 3 3 4 4 3 3 4 4 4 5 8 11 11 10 9 9 9 9 8 7 6 5 5 5 4 4 4 5 5 6 6 7 6 6 7 7 7 8 9 9 9 10 10 11 11 11 11 11 11 11 12 12 13 13
10 10 9 9 9 9 9 8 7 8 6 7 6 6 6 6 6 5 5 5 5 4 4 4 3 3 3 3 2 3 3 3 3 3 4 4 3 3 4 4 4 4 5 11 12 10 9 9 9 9 8 7 5 5 4 4 4 4 6 6 6 6 6 6 6 7 7 8 9 9 9 9 10 10 10 10 10 11 11 11 11 12 12 12 12
10 10 10 9 9 9 8 8 7 8 7 7 7 6 6 7 6 6 5 5 4 4 4 4 4 3 3 3 3 3 3 3 3 3 3 3 3 3 3 3 3 4 4 4 8 11 10 9 9 9 9 8 7 5 4 4 5 5 6 7 6 6 6 7 7 7 8 9 9 10 9 9 9 10 10 10 10 10 11 11 11 12 12 12 12
11 10 10 9 9 9 9 8 9 8 7 7 6 7 7 6 6 6 7 6 5 5 3 4 3 3 2 2 3 3 3 3 4 4 3 4 4 3 3 3 3 3 3 3 4 6 10 9 9 9 10 9 7 6 5 4 5 6 6 7 6 6 7 7 7 9 9 9 9 10 9 9 10 10 10 10 10 10 10 10 11 10 10 10 10
12 11 9 9 9 9 8 9 9 8 8 7 7 7 7 6 6 6 6 7 7 6 4 4 4 3 3 2 2 3 3 3 4 3 3 4 4 4 3 3 4 3 3 3 3 4 7 8 9 10 10 9 7 6 6 4 4 5 5 6 7 7 7 8 9 9 9 9 9 10 9 9 9 8 8 8 8 9 9 9 9 9 8 9 9
12 11 10 9 9 8 8 9 9 8 8 8 8 6 7 7 8 6 5 6 6 7 6 4 4 3 3 2 2 2 2 3 3 3 3 4 4 4 4 4 4 3 3 3 3 3 4 6 7 9 10 8 8 7 6 7 5 4 6 7 8 8 9 9 9 8 9 9 9 9 8 8 8 8 8 8 8 8 8 8 8 8 8 9 9
13 12 11 10 9 9 8 10 9 8 8 8 7 7 7 7 8 7 3 3 5 6 5 5 5 4 3 3 2 1 2 2 3 3 3 3 4 4 3 4 3 3 3 3 2 3 2 2 3 3 4 8 8 7 6 8 6 3 5 6 8 8 9 9 8 8 8 8 8 7 7 7 7 7 7 8 8 8 8 8 8 9 9 9 9
13 13 12 11 10 9 10 10 10 9 9 10 9 9 10 9 8 9 8 3 1 4 6 7 6 5 4 3 2 1 1 2 3 2 3 3 4 4 4 4 3 3 3 2 2 2 2 2 2 2 3 5 7 7 7 8 9 4 4 5 7 8 9 7 7 8 8 7 7 6 6 6 6 6 7 7 8 8 8 8 8 8 8 9 9
12 12 13 11 10 9 9 10 10 10 10 11 10 10 9 9 8 7 9 8 5 5 6 7 8 5 4 3 3 2 2 2 3 4 3 3 4 4 4 4 4 3 3 2 2 2 2 2 2 2 2 2 4 5 6 7 10 7 4 4 5 7 7 6 7 7 7 6 6 5 5 6 6 6 7 7 7 8 7 7 8 8 8 8 9
11 12 11 11 11 9 10 11 11 10 10 9 9 9 10 9 9 8 7 9 7 8 8 9 6 7 6 5 3 3 3 3 4 4 4 4 4 3 4 4 4 3 3 3 3 3 2 2 1 1 1 1 1 2 2 2 4 10 8 10 2 6 6 5 5 6 6 6 5 5 6 6 7 7 7 7 7 7 7 7 7 7 8 8 8
11 11 10 11 10 10 11 10 11 10 10 10 10 11 11 11 12 10 9 7 6 7 10 10 7 7 6 5 4 4 4 4 5 6 5 5 4 4 3 3 3 3 3 3 3 3 2 2 2 1 1 1 1 2 3 4 5 7 9 11 11 5 4 4 4 5 7 7 6 6 6 6 6 6 6 6 6 6 7 6 7 7 7 8 8
11 11 9 10 12 12 10 10 11 11 11 11 12 12 11 11 11 10 10 10 7 9 9 8 4 10 6 7 4 4 3 8 8 7 6 5 6 5 4 4 4 3 3 3 2 2 2 2 2 2 1 1 1 1 2 3 2 2 5 7 8 7 3 4 5 7 7 7 6 6 6 6 7 7 7 7 7 7 7 7 7 7 8 8 9
11 13 12 12 12 11 11 11 11 11 10 10 11 12 13 11 13 12 14 12 11 8 10 8 8 5 4 5 3 3 6 3 8 5 7 6 7 6 6 5 5 5 4 3 1 2 2 3 2 2 2 1 1 1 2 3 3 3 3 4 4 7 7 6 7 9 10 8 7 6 6 7 7 7 8 8 8 8 7 7 8 8 9 9 10
11 12 13 12 13 13 12 11 11 11 11 10 10 10 12 12 13 13 14 12 10 10 9 8 7 7 7 4 2 2 4 6 7 5 6 6 5 7 7 7 6 5 5 4 3 2 2 2 2 2 2 2 2 2 3 2 2 2 2 4 2 7 7 9 11 12 12 9 7 6 6 7 7 8 8 8 8 8 8 8 8 9 9 9 10
11 11 12 13 12 12 12 12 11 11 10 10 11 12 12 12 11 12 11 11 10 10 12 10 6 7 5 5 4 2 2 9 7 4 4 6 6 7 7 7 6 6 5 5 4 4 3 3 3 3 3 3 3 3 3 3 2 3 2 5 3 5 6 9 11 12 12 10 8 7 7 7 8 8 8 9 9 9 9 9 9 10 10 10 10
12 12 12 12 12 12 12 12 12 12 11 11 12 11 10 9 12 13 10 11 11 12 11 10 13 9 8 7 5 2 4 5 3 7 5 7 7 5 5 7 7 7 7 6 6 5 4 4 3 4 4 4 4 3 3 4 3 3 3 3 2 4 6 8 10 11 10 10 9 8 8 8 9 9 9 10 9 9 10 10 10 10 10 10 10
12 12 13 14 12 12 12 12 12 12 10 11 10 12 14 14 13 12 12 12 11 11 10 11 11 10 9 7 5 5 4 3 3 3 5 6 6 9 8 6 6 8 8 7 6 5 4 4 4 4 4 4 4 4 4 4 4 3 3 2 4 5 6 8 10 11 10 10 9 9 9 10 10 10 11 11 11 11 10 10 10 10 10 10 11
12 13 13 14 14 14 12 14 13 12 10 13 11 12 12 12 14 15 14 14 11 11 12 10 11 10 11 9 9 6 4 4 5 5 2 3 5 7 8 10 8 8 8 7 7 6 5 4 4 5 5 5 5 5 4 4 3 3 4 3 4 5 6 7 10 11 11 10 10 10 10 11 11 11 12 11 11 11 11 11 11 11 11 11 11
11 12 14 15 15 14 13 13 13 11 11 13 13 13 13 12 13 14 14 16 13 13 11 9 10 10 11 9 11 12 11 10 10 8 8 7 4 4 6 8 6 6 6 6 6 6 4 3 4 5 5 5 5 5 5 5 4 4 5 4 3 3 5 8 11 12 11 10 10 10 11 11 12 12 12 11 11 11 11 11 11 11 11 11 11
10 11 13 14 13 13 13 13 13 14 14 13 12 12 12 12 12 13 13 14 12 11 12 11 11 8 10 10 10 10 10 9 8 9 10 8 9 7 6 5 1 2 4 5 4 4 4 4 4 5 5 5 5 5 5 5 5 9 5 5 2 2 5 8 11 12 10 9 9 10 10 11 11 11 11 11 11 11 11 11 11 11 11 11 12
10 12 13 16 14 13 14 15 15 14 14 14 13 13 12 12 12 13 13 13 14 12 11 12 12 11 11 10 9 10 10 8 7 8 8 7 8 6 4 5 5 6 4 4 5 5 4 4 5 5 5 5 5 5 5 5 5 8 4 5 2 2 4 8 10 11 10 8 9 9 10 10 11 11 11 11 11 11 11 11 11 11 11 11 12
11 13 11 13 12 13 14 14 14 13 13 13 13 12 12 12 12 12 14 13 11 13 13 11 10 11 8 9 10 9 9 6 6 6 8 7 8 9 6 3 1 4 3 4 3 4 5 5 5 5 5 6 5 5 5 5 5 9 4 1 3 1 4 8 10 10 9 9 9 9 9 9 10 10 11 11 11 11 11 11 11 11 12 12 13
10 10 10 12 13 13 13 13 13 13 12 11 10 10 10 10 9 11 10 10 12 12 12 11 10 11 10 9 8 8 8 5 5 7 7 8 8 9 9 8 4 3 4 4 4 8 4 6 6 6 6 6 6 6 6 5 5 10 6 3 3 2 5 7 10 10 10 9 9 8 8 8 8 9 10 10 11 11 11 11 12 13 13 14 15
8 8 10 10 12 13 13 13 12 12 11 12 11 10 10 11 10 9 11 7 10 13 12 11 12 12 12 10 8 10 7 6 6 6 6 7 7 6 8 9 9 6 6 6 6 7 7 6 5 7 7 7 6 5 6 6 6 9 5 4 4 4 5 6 8 10 10 10 10 8 8 8 8 8 9 9 10 11 11 11 12 13 13 14 14
8 8 9 10 11 12 12 13 13 12 12 12 11 11 10 11 11 11 12 10 11 12 12 12 13 12 11 12 11 9 9 7 6 6 6 6 6 6 8 10 9 9 6 8 9 8 8 10 7 8 8 7 6 5 6 6 7 8 5 5 5 4 5 6 9 10 11 11 10 9 8 8 8 9 9 9 10 10 11 12 12 12 13 13 13
8 6 8 9 10 12 12 12 12 12 13 12 12 12 10 11 12 11 11 9 11 10 11 12 12 11 11 10 10 9 7 7 8 8 7 7 6 6 7 8 8 10 8 8 7 9 7 9 7 7 9 8 7 6 6 6 10 8 6 6 5 6 5 7 10 11 11 10 9 9 9 9 9 9 9 9 10 10 11 11 12 12 13 13 13
8 8 8 9 10 10 11 12 12 12 13 13 12 12 12 13 12 12 11 11 11 13 11 10 11 10 12 13 11 10 8 9 7 7 6 6 6 6 6 5 5 6 8 7 7 5 6 10 9 6 9 10 7 7 5 6 8 8 6 6 6 5 6 8 12 12 12 9 9 10 10 10 10 10 9 10 10 11 12 12 13 13 13 14 14
8 8 9 10 10 11 11 12 13 13 13 13 12 13 12 13 13 12 13 14 15 14 13 11 9 11 13 13 13 12 9 8 8 8 8 7 7 7 6 6 5 5 5 6 10 5 5 5 8 7 9 10 9 9 8 7 6 9 6 6 6 6 7 6 10 12 11 9 9 10 11 10 10 10 10 10 11 12 12 13 13 14 14 14 14
8 9 10 10 11 11 12 12 13 13 14 14 12 13 14 14 14 14 14 14 16 14 12 13 12 12 14 14 14 13 10 11 10 9 9 8 7 7 6 6 7 6 7 8 9 5 3 1 5 7 8 9 9 10 9 8 7 6 7 7 6 6 5 5 6 8 10 10 10 10 11 11 11 11 11 11 11 12 12 13 13 13 14 14 15
8 9 10 9 10 12 12 13 13 13 13 14 13 13 14 15 15 11 13 14 16 16 14 14 13 11 12 13 13 12 11 12 10 11 10 10 10 9 8 8 8 8 7 7 8 6 7 5 5 6 7 9 8 9 9 8 7 6 7 6 5 5 5 5 6 5 9 10 10 11 12 12 12 12 11 11 11 11 12 13 13 14 14 15 16
8 9 9 10 11 12 12 12 12 13 14 13 13 14 15 16 16 14 13 15 16 16 16 16 14 12 11 12 12 10 6 10 10 9 8 9 8 9 10 8 8 7 7 6 7 6 9 8 7 8 8 8 8 8 8 6 6 6 6 6 5 5 5 6 6 5 7 10 11 12 13 13 14 12 11 11 10 11 12 13 14 14 15 16 17
10 8 8 10 10 11 12 12 12 12 13 13 13 14 16 16 16 16 14 15 15 15 16 15 14 13 15 14 12 11 10 11 10 9 9 9 9 9 8 7 7 6 6 6 4 5 6 9 9 9 8 8 8 6 7 6 7 6 6 6 6 6 6 7 7 7 7 12 13 14 14 14 13 12 10 10 10 11 12 13 14 15 16 17 18
10 10 8 8 10 11 10 12 12 13 13 13 14 14 14 14 14 13 13 14 15 15 15 14 16 14 15 14 13 10 11 11 11 11 11 14 10 8 9 8 8 6 5 6 6 4 6 8 8 7 7 7 7 7 7 8 7 7 7 7 7 7 8 8 7 7 10 12 13 13 12 11 11 10 10 10 11 12 13 14 15 16 18 19 19
10 9 10 9 9 11 11 11 12 12 12 13 14 14 14 13 13 13 12 13 14 13 13 13 12 11 13 13 10 12 13 12 12 11 11 14 11 11 12 10 9 7 8 7 6 6 5 5 8 8 7 8 7 7 8 7 7 6 6 7 7 7 7 8 8 6 5 4 4 5 6 8 8 8 9 10 11 12 13 15 17 18 19 20 21
11 10 8 9 8 9 11 10 11 12 12 13 13 14 14 13 13 14 13 14 14 13 13 12 9 10 13 13 14 15 17 17 14 14 12 12 10 12 11 11 9 10 9 9 8 8 7 6 6 7 7 7 7 7 8 8 6 5 5 5 6 7 7 7 6 5 5 5 7 8 8 7 10 9 11 13 14 14 15 16 18 20 20 21 22
10 10 11 10 9 9 10 10 10 10 11 12 12 12 12 13 12 14 14 14 15 14 14 13 13 13 14 13 14 16 18 16 14 10 10 10 9 10 10 9 10 11 11 9 9 8 7 7 5 7 7 7 7 4 6 7 6 6 6 5 5 6 6 6 6 5 4 3 4 3 4 5 5 6 8 10 10 11 13 15 17 18 19 20 21
8 9 9 9 10 10 8 10 10 10 10 11 10 10 12 14 13 14 15 15 15 15 14 16 16 16 15 14 15 15 18 21 23 19 17 20 15 10 10 11 12 11 9 8 8 8 8 7 6 5 6 7 7 8 8 8 9 7 7 6 5 5 4 5 5 4 4 3 3 3 3 3 4 5 5 6 6 8 10 13 15 19 20 20 21
9 8 9 9 9 10 10 9 10 8 9 9 12 17 16 11 11 11 12 14 15 14 14 15 16 17 17 15 14 23 23 23 24 24 16 12 20 16 16 11 12 9 9 9 9 10 9 9 9 8 8 8 9 10 10 9 7 6 7 7 6 4 3 5 6 4 2 2 2 4 4 3 4 5 6 7 7 7 7 8 9 10 13 17 20
9 8 8 8 8 8 10 10 11 11 11 10 15 16 16 20 15 10 11 12 14 14 14 14 15 15 15 16 14 19 21 22 22 22 14 19 14 11 8 11 13 15 13 9 9 11 10 9 8 7 8 8 10 9 9 9 9 9 8 7 5 4 4 3 3 2 2 2 1 3 5 4 4 7 7 8 8 7 8 10 15 17 19 22 24
9 8 8 8 8 8 8 10 11 11 11 13 17 14 17 19 20 13 10 11 11 13 14 14 13 13 15 14 12 10 13 16 13 13 17 19 19 18 12 10 10 14 20 19 15 9 8 8 8 9 8 9 9 10 9 10 10 10 8 8 7 6 6 5 5 3 2 5 2 2 6 5 6 8 9 9 8 8 9 14 18 18 20 23 25
9 8 9 9 8 8 8 10 10 11 11 14 16 16 16 19 21 20 10 12 12 15 15 15 15 15 13 13 11 10 11 21 16 12 11 13 18 19 16 12 12 17 18 15 8 1 12 11 11 10 12 10 10 9 10 10 10 10 10 8 8 7 6 5 6 4 4 4 2 5 7 7 7 8 10 9 8 8 9 14 19 20 23 25 26
8 9 8 8 8 8 8 9 10 10 10 12 15 15 17 18 20 19 15 15 14 14 15 15 14 16 16 13 11 10 10 13 14 15 14 11 12 13 12 10 11 14 17 18 19 11 5 9 10 11 9 8 8 9 10 10 12 10 10 9 8 7 7 7 6 5 4 2 4 4 7 9 8 9 10 9 7 7 9 13 18 20 23 25 25
9 8 9 9 8 7 8 8 9 10 9 12 14 17 18 20 21 19 15 15 13 12 13 14 14 15 15 14 12 11 11 13 11 15 13 13 15 15 15 13 12 13 14 15 14 12 10 8 8 6 7 8 7 9 10 9 8 7 8 8 8 6 4 6 7 7 7 6 6 5 7 6 6 8 9 7 7 8 9 13 19 22 25 26 26
9 9 8 7 8 9 7 8 9 10 10 13 16 18 19 20 22 14 13 14 15 15 12 10 11 10 10 10 9 9 10 12 15 21 18 15 14 17 17 15 10 11 13 13 15 13 11 11 8 8 7 9 10 10 11 10 9 8 7 5 4 5 5 4 7 6 7 6 8 8 7 7 7 8 8 6 7 9 9 11 17 23 25 26 26
10 10 10 9 7 8 9 8 9 10 9 11 14 17 18 21 17 11 12 11 12 14 12 10 7 8 8 10 9 8 9 11 17 24 24 21 15 17 17 16 10 9 11 11 17 18 15 14 12 13 14 16 16 16 17 17 12 10 8 8 7 8 7 7 9 7 7 6 6 8 6 8 8 8 8 7 7 10 10 12 12 17 25 26 24
11 10 10 10 9 8 8 9 9 9 9 10 13 15 17 19 17 11 10 11 10 12 13 11 8 9 13 22 15 12 12 12 19 25 25 21 16 16 16 15 15 12 11 11 10 11 17 16 16 16 17 17 18 18 18 18 18 14 11 11 10 9 9 9 7 5 4 4 6 7 5 8 5 5 6 7 8 9 11 11 12 11 16 19 23
11 10 9 10 10 9 9 9 11 11 10 10 13 15 17 18 15 11 10 9 11 12 13 11 8 8 9 15 22 18 12 11 21 25 27 22 17 16 16 16 13 13 14 14 15 13 13 13 12 13 13 15 14 13 13 19 19 15 11 8 9 10 9 7 6 3 4 6 7 9 6 6 5 5 4 4 4 5 7 8 9 8 10 10 10
Wind_Direction
185 184 182 187 180 173 173 176 175 172 173 173 174 172 168 162 158 160 158 154 150 147 142 136 138 127 127 125 128 115 116 119 114 109 121 129 120 55 7 18 47 65 88 94 106 112 129 122 106 114 107 106 93 88 95 93 89 88 89 85 76 76 73 70 67 65 63 61 60 58 57 55 53 53 52 51 50 48 49 48 47 46 44 42 41
183 184 182 185 177 173 177 178 178 174 177 178 179 175 170 165 164 162 160 157 157 145 149 136 123 121 129 131 132 132 129 127 128 134 128 124 120 110 33 20 28 69 77 87 91 96 92 101 112 109 112 117 107 106 99 95 92 98 90 84 82 74 74 70 67 66 66 64 63 62 60 60 57 55 55 53 50 48 47 47 46 45 45 42 39
185 182 182 180 177 178 184 178 181 178 181 179 174 178 169 170 167 165 164 163 153 148 157 139 134 129 127 137 134 137 135 136 135 136 135 129 131 122 91 44 36 33 74 84 85 85 84 88 92 105 114 100 107 108 114 106 94 87 87 85 79 83 75 72 67 64 66 64 64 63 62 60 60 58 58 56 54 51 48 46 44 44 43 40 38
185 180 183 179 181 182 183 180 185 175 181 175 169 170 166 153 152 154 151 152 143 152 155 151 145 136 136 134 144 143 144 142 144 143 135 131 136 138 127 100 54 42 41 80 89 85 86 85 88 86 87 97 103 105 107 109 100 98 95 86 86 82 79 73 68 66 65 65 65 67 66 64 61 59 57 57 54 51 47 45 42 41 39 37 33
187 181 181 180 180 179 181 182 181 174 175 166 160 157 151 148 145 149 149 144 147 147 148 150 140 139 146 144 146 143 142 150 144 143 142 145 142 138 134 123 108 69 47 47 72 83 83 79 75 72 79 92 91 101 104 105 106 103 93 95 85 81 78 77 73 70 69 70 68 66 64 63 60 60 56 53 50 47 44 40 40 37 37 34 32
185 181 184 183 182 183 180 179 177 168 163 160 168 168 164 160 157 165 161 168 164 161 169 161 142 141 144 145 154 149 151 153 147 142 148 146 145 139 139 140 133 118 87 56 50 65 74 75 73 71 69 77 95 99 100 111 120 114 110 95 83 78 79 75 74 74 79 76 74 70 67 63 60 56 54 51 47 46 43 41 38 37 36 33 32
185 180 187 187 181 183 182 180 168 166 167 171 172 169 166 165 165 169 165 175 169 166 178 161 149 145 142 154 150 148 157 145 141 140 148 142 146 142 141 136 130 126 127 114 70 48 56 62 65 67 69 74 74 89 106 113 115 110 109 97 88 85 90 87 82 84 81 76 72 67 63 59 54 53 49 46 44 43 41 40 38 37 35 31 29
186 186 186 187 184 184 184 175 162 166 169 168 173 171 167 166 172 171 166 175 168 171 176 154 143 134 131 143 139 162 156 152 148 147 143 152 145 146 145 130 136 113 110 115 100 64 51 58 60 57 57 58 64 70 94 98 115 107 97 98 97 95 91 89 88 84 76 70 63 62 60 56 51 50 47 46 43 42 41 38 36 36 35 32 28
190 188 186 184 187 185 180 167 163 169 168 169 177 175 167 166 168 178 183 172 174 166 167 154 132 119 118 126 140 164 162 157 158 145 149 145 141 141 131 116 103 122 129 112 121 118 70 64 65 54 46 49 56 67 61 78 104 106 101 106 109 104 96 93 87 74 69 66 64 59 58 54 52 49 49 47 44 42 42 38 35 33 30 29 26
189 186 192 187 188 184 171 161 167 170 167 171 180 171 171 173 167 176 179 174 178 173 167 141 120 123 117 120 145 172 157 161 148 159 161 149 149 145 141 139 137 128 121 120 125 125 130 101 90 72 45 43 51 63 59 42 55 89 116 119 111 105 94 89 80 72 67 66 62 56 51 51 50 51 48 46 44 41 38 35 31 28 28 24 23
186 185 191 186 186 182 168 167 170 171 168 173 173 169 169 179 171 163 165 185 184 176 156 131 119 110 112 115 127 134 157 158 167 182 158 157 146 141 145 146 139 138 132 142 134 129 125 140 141 124 82 46 49 50 54 35 31 73 114 114 110 97 91 80 78 75 68 59 52 49 46 47 48 46 44 43 39 35 33 27 26 25 23 25 23
186 187 191 187 186 182 170 165 174 173 173 177 177 179 175 169 171 162 165 161 175 141 136 134 117 106 105 102 97 112 150 178 196 180 174 156 157 168 161 153 152 143 142 145 133 124 122 126 126 125 121 87 59 46 51 31 8 39 80 108 111 109 97 82 80 77 62 49 45 43 43 41 44 44 41 37 32 29 25 21 20 19 17 19 19
187 186 193 188 187 174 167 169 177 181 182 185 178 171 170 170 162 162 166 167 174 166 159 145 137 122 116 118 116 123 137 195 196 194 192 181 177 183 167 169 160 157 159 137 124 115 116 109 116 120 116 135 122 79 53 35 17 13 77 93 103 111 98 92 85 68 46 35 33 36 36 35 35 38 33 29 28 24 18 16 15 13 12 14 14
190 191 191 186 184 174 174 177 180 185 186 176 166 159 160 165 161 162 181 179 175 178 169 165 183 179 161 155 149 153 164 200 199 196 201 194 194 183 182 176 161 156 153 146 129 124 104 103 95 100 105 109 98 116 110 93 40 6 21 5 83 118 108 98 91 61 35 22 25 30 30 27 25 26 26 24 20 17 15 13 10 8 8 8 8
192 191 190 190 185 178 183 178 184 180 175 175 172 170 174 172 174 175 169 186 178 180 185 205 186 175 159 147 181 174 176 212 207 208 198 195 193 186 192 171 159 165 157 152 152 130 104 91 93 80 87 79 103 110 99 75 41 1 12 3 348 107 100 108 74 33 13 14 19 20 23 18 15 16 18 16 14 8 12 7 6 3 3 3 4
194 192 192 190 188 187 181 184 187 186 184 176 177 178 174 178 180 183 170 169 184 190 205 208 216 151 174 215 169 206 202 210 195 191 189 194 199 197 186 186 169 172 184 171 155 132 120 107 116 117 90 71 97 107 95 84 73 34 16 0 12 46 63 90 38 11 6 8 16 16 12 8 4 5 6 8 4 3 2 3 359 356 358 360 1
198 196 196 194 192 189 187 188 187 188 189 184 179 183 179 180 178 180 184 183 179 179 200 206 227 251 202 141 138 216 234 121 163 183 176 198 208 208 196 193 187 190 192 181 178 161 147 134 128 126 145 153 151 135 125 138 143 113 94 19 56 57 42 37 17 10 10 4 8 7 359 356 355 356 359 359 356 353 355 356 355 354 358 359 359
204 199 199 196 195 193 189 186 188 188 193 191 181 175 180 179 185 189 191 197 176 173 184 205 225 235 260 303 336 243 180 147 166 193 170 208 198 203 207 204 200 198 202 190 194 192 170 154 148 149 154 174 168 165 150 135 132 141 96 23 49 85 55 22 10 9 7 1 356 352 348 349 349 349 350 351 350 349 350 351 351 352 355 355 352
206 203 202 202 200 196 194 192 191 191 191 190 186 185 181 184 181 193 196 190 186 184 185 186 196 251 240 246 272 245 280 143 198 134 184 191 211 207 212 206 205 211 211 206 195 209 183 180 165 168 165 177 176 176 168 130 93 82 43 338 54 73 47 24 11 5 2 355 348 345 345 344 343 344 346 347 348 345 347 347 347 349 350 349 348
204 203 204 204 205 202 199 195 194 194 189 197 192 184 179 183 185 192 191 195 195 195 188 177 186 202 198 217 241 272 268 301 250 197 207 177 188 195 213 203 209 217 217 211 202 207 206 182 177 177 180 172 181 180 172 157 157 157 142 22 64 64 39 19 6 1 356 350 344 345 340 340 339 341 344 343 343 343 344 343 344 346 345 345 345
205 203 201 204 204 206 202 202 199 197 192 199 198 186 184 180 181 186 194 196 201 205 195 190 193 193 164 207 205 208 207 258 301 292 232 207 185 179 187 183 217 224 216 211 206 201 205 190 173 181 187 176 178 179 179 169 165 156 116 48 60 41 25 6 359 356 351 344 342 342 339 338 337 339 341 341 342 341 340 340 341 341 341 340 340
202 205 201 203 205 204 205 204 204 200 194 201 197 188 190 187 185 188 190 195 199 200 206 195 192 197 183 172 181 178 191 214 224 213 285 272 236 185 177 173 198 212 200 200 200 201 202 187 185 190 192 184 179 175 182 172 161 157 112 83 67 31 3 350 353 350 345 339 340 340 336 337 336 337 339 339 339 334 336 337 335 335 336 336 336
198 202 203 202 205 204 205 203 205 204 200 203 203 197 194 190 188 189 192 196 198 198 206 205 189 196 184 187 189 181 185 189 193 194 201 196 206 189 177 189 199 170 185 185 185 195 190 184 195 192 192 185 178 175 177 171 139 121 104 122 89 24 350 343 347 343 336 335 336 336 333 334 334 334 333 332 331 329 329 329 329 331 333 332 333
200 203 205 202 202 204 202 202 205 206 206 206 206 199 197 192 189 193 198 201 202 196 204 206 196 201 191 199 200 194 201 197 187 185 194 202 194 202 180 154 158 162 120 159 178 194 202 199 199 195 188 183 178 177 166 169 147 133 169 120 101 28 348 343 340 332 328 329 329 328 328 328 328 327 326 324 325 324 326 324 327 329 330 331 333
205 208 208 201 201 200 199 204 207 208 208 204 206 200 196 194 194 193 196 194 200 196 199 207 196 201 198 202 205 203 207 205 189 188 198 201 193 198 148 156 189 170 149 163 180 192 210 208 191 192 185 187 170 178 175 179 171 162 184 137 172 2 345 337 327 320 317 317 317 319 321 321 322 321 321 322 322 324 323 322 325 328 329 332 332
208 211 208 203 203 208 208 210 211 211 207 206 204 202 198 198 196 195 197 198 193 197 204 203 201 205 199 198 207 209 210 203 193 187 192 187 193 198 150 158 108 156 126 184 166 184 195 202 189 183 185 184 177 178 182 175 155 142 164 192 152 247 317 317 315 309 307 306 309 314 315 319 318 317 317 318 319 320 320 321 324 328 331 332 331
214 213 206 203 205 207 211 212 211 213 209 207 206 205 202 204 207 206 203 197 197 197 205 201 203 200 207 209 205 212 215 203 191 205 199 194 190 186 158 164 189 190 175 184 181 218 194 175 179 187 187 183 181 181 180 179 145 132 146 202 233 206 272 294 304 303 299 299 302 302 304 305 309 313 313 309 310 313 318 322 326 331 334 332 331
218 207 204 202 203 206 209 212 211 212 210 209 208 207 203 207 213 209 208 195 199 198 204 201 209 202 206 206 207 214 208 197 202 210 206 199 197 183 177 179 179 194 190 196 201 218 195 178 180 196 188 186 183 182 173 165 157 138 167 222 233 235 240 276 293 294 292 293 294 297 302 305 304 299 297 298 304 310 314 318 326 329 328 325 322
223 206 206 204 206 206 211 214 212 211 210 209 206 208 207 210 217 214 213 203 204 204 203 205 209 202 207 203 209 210 206 193 200 210 207 203 205 194 191 194 199 214 183 208 201 193 186 195 185 192 190 190 181 177 168 185 157 163 202 217 231 251 259 271 284 283 284 286 292 296 297 291 287 286 288 294 299 306 312 318 322 320 317 315 314
219 200 206 206 208 206 213 215 213 210 211 210 206 204 201 210 216 220 218 209 207 212 208 208 205 198 204 200 206 215 198 186 203 202 202 203 200 196 201 206 205 215 213 210 208 184 170 190 202 175 182 186 181 178 176 186 141 169 197 223 233 243 246 263 271 269 269 275 283 287 285 282 282 282 285 291 300 305 309 312 311 310 308 306 308
221 216 208 212 208 208 210 216 214 213 211 210 203 203 203 211 211 216 211 206 210 214 213 205 210 196 201 202 203 214 195 194 195 198 199 198 198 194 207 206 207 210 222 223 228 161 165 179 197 187 173 178 176 172 169 184 160 185 204 227 231 228 247 259 256 258 260 268 277 278 276 275 276 277 284 291 296 299 302 303 302 300 301 304 306
231 220 215 214 211 211 212 213 215 214 211 210 204 204 205 214 213 211 211 205 212 214 212 205 204 202 203 204 203 205 191 185 196 197 198 197 194 196 200 200 200 204 204 217 234 176 172 176 171 165 168 170 175 178 181 186 169 181 217 220 224 220 240 239 238 244 254 260 266 268 271 272 277 282 283 285 288 292 294 295 297 299 303 305 306
231 223 220 215 213 213 214 213 214 215 212 210 206 206 210 213 215 215 210 204 208 214 210 209 202 203 207 208 205 201 182 187 197 193 195 191 186 197 194 193 198 192 189 206 212 146 140 132 162 161 165 168 180 188 185 189 191 195 206 226 227 230 234 245 246 237 241 251 257 266 271 273 272 273 273 276 283 287 291 294 298 302 303 303 304
237 231 227 219 216 216 216 216 215 216 216 211 208 205 212 214 214 209 209 205 204 210 206 211 198 196 204 208 207 193 183 195 192 192 191 187 188 191 193 192 197 189 193 188 206 165 159 164 175 164 162 183 188 187 194 191 194 194 202 210 220 228 238 245 247 242 228 237 251 261 267 267 264 262 267 275 281 289 294 298 300 302 304 305 306
250 236 233 226 220 219 220 220 217 218 217 214 210 210 214 216 215 212 205 207 207 207 207 210 200 191 195 205 204 181 157 190 198 195 184 187 185 192 191 189 194 187 184 203 183 178 155 176 176 170 179 185 198 188 194 200 194 191 203 213 218 222 230 242 249 253 232 233 244 256 261 261 260 262 269 278 287 294 296 296 300 304 307 307 307
266 251 230 233 229 223 224 223 219 218 216 217 214 213 216 216 218 218 212 211 213 211 210 208 199 189 199 203 204 182 169 192 196 189 189 187 187 194 186 183 188 180 183 191 218 177 155 152 186 185 180 174 195 188 179 186 187 196 208 215 213 224 232 233 237 242 228 225 239 255 259 260 263 268 275 285 291 291 292 297 304 308 308 308 307
266 262 245 232 237 231 226 224 222 219 217 214 215 217 217 219 221 221 218 216 217 215 213 210 205 195 198 201 198 168 169 187 192 189 185 189 191 187 188 182 189 181 167 187 192 190 170 167 158 177 170 176 178 182 182 184 193 199 203 206 211 219 230 235 236 232 230 231 244 250 257 264 272 278 282 285 288 291 296 304 307 309 308 308 308
283 267 260 247 230 236 232 227 226 227 223 220 220 220 218 217 219 221 222 220 220 217 213 214 207 192 199 198 186 167 173 188 193 185 177 184 179 187 189 184 185 170 174 182 186 185 179 164 152 155 178 173 172 187 187 191 192 188 193 200 207 217 226 236 228 220 215 213 219 232 249 259 256 274 281 285 291 299 304 308 309 308 308 307 307
301 289 267 250 242 237 239 232 230 229 227 223 223 221 221 219 219 221 222 224 224 222 217 212 195 194 206 205 198 193 197 200 193 184 177 175 180 184 180 177 167 171 180 185 186 184 185 169 166 169 163 181 179 180 183 188 201 200 193 190 211 206 213 225 232 210 209 219 220 227 242 259 270 275 279 285 289 296 302 307 306 305 305 304 302
313 298 288 277 258 243 241 238 233 230 229 229 226 223 220 219 217 220 222 225 227 226 221 218 216 214 212 208 207 205 204 203 196 178 167 174 167 174 178 164 170 173 182 178 179 182 181 184 182 174 179 170 177 184 155 172 188 205 203 201 208 201 205 215 228 228 215 219 239 230 231 242 254 271 286 289 293 300 304 302 297 295 294 295 293
316 306 290 278 275 264 250 245 244 235 231 228 225 222 221 222 220 221 222 225 226 229 226 224 222 219 216 212 211 211 210 213 213 210 206 200 188 187 174 164 172 175 175 173 178 179 185 184 186 175 175 184 183 171 184 191 199 196 174 185 218 227 238 253 245 233 228 246 274 287 292 313 311 309 305 305 304 311 301 293 286 284 283 283 282
322 314 311 298 283 275 268 256 244 235 236 239 233 227 225 225 221 220 221 224 225 227 226 223 223 221 219 216 212 215 216 216 215 213 209 209 211 200 159 161 175 163 166 164 172 181 180 184 190 174 181 195 187 188 189 193 183 165 164 181 205 220 236 267 272 248 232 232 288 303 298 300 293 292 291 290 298 297 286 281 271 272 276 278 278
322 319 310 302 287 277 273 268 261 255 252 248 241 233 229 226 227 225 219 223 225 226 226 221 222 220 220 219 217 213 216 217 217 213 201 202 209 217 215 195 176 164 159 162 175 171 179 189 177 181 193 186 190 184 186 174 174 178 175 181 191 200 217 239 275 345 144 168 251 283 287 284 278 280 283 276 277 277 264 258 261 266 271 274 274
322 319 310 301 296 285 275 271 266 264 261 255 249 238 229 226 225 228 223 225 223 226 228 227 227 224 221 220 215 200 200 206 194 199 207 204 202 205 208 216 218 209 189 174 163 172 183 172 179 197 176 189 180 174 176 172 172 171 175 177 187 192 201 215 235 245 80 127 188 256 273 275 268 265 268 261 256 251 251 256 261 264 268 270 270
317 313 311 308 300 292 284 277 272 266 268 263 258 243 230 227 225 225 233 225 226 231 230 227 227 225 222 218 213 199 204 205 201 197 188 196 201 199 201 205 215 215 219 229 263 281 169 169 179 179 190 174 166 183 176 175 164 161 167 175 183 191 205 217 225 223 201 160 213 254 259 260 250 251 254 253 246 242 248 254 257 259 262 264 266
308 307 305 298 294 292 286 282 276 272 264 270 258 244 236 227 227 223 233 234 232 232 230 226 226 226 223 218 209 201 189 191 197 196 186 177 179 191 195 197 200 207 216 219 217 232 238 199 177 180 180 161 173 166 169 165 168 168 169 174 173 184 200 219 231 235 222 178 218 256 270 263 254 253 252 251 240 247 250 254 255 257 260 263 263
305 302 305 304 296 288 284 279 280 275 271 265 260 249 239 231 229 226 232 235 235 230 227 225 223 223 223 223 213 203 187 186 187 182 173 170 188 197 202 203 197 199 200 204 207 204 198 205 210 185 151 159 161 160 158 168 166 160 162 159 163 172 199 237 252 247 249 240 228 227 249 257 249 249 250 254 258 257 255 258 258 258 258 258 258
299 299 291 281 282 287 280 275 274 272 269 262 258 259 249 239 232 227 233 233 236 238 232 218 220 218 214 212 206 198 185 191 185 184 184 183 188 196 200 202 194 198 200 201 197 193 193 193 189 167 157 162 163 160 161 160 154 148 143 141 140 158 162 199 233 238 238 230 211 219 244 254 255 259 266 269 267 265 260 256 256 253 252 251 252
294 296 296 292 286 285 279 276 270 268 268 259 253 255 256 250 241 235 233 234 232 236 237 223 203 207 205 200 203 200 191 197 186 190 189 182 193 196 199 198 191 191 200 195 192 187 183 180 168 152 159 169 170 164 164 162 159 157 154 155 164 161 174 213 236 233 238 219 207 211 236 262 252 248 263 264 268 267 260 253 252 247 244 246 248
284 280 283 287 283 279 270 269 267 270 266 255 257 259 256 253 244 239 235 235 230 231 237 225 207 214 218 219 213 208 201 198 184 192 193 186 196 197 197 195 197 196 196 183 172 181 177 177 171 172 175 175 174 171 169 170 167 169 173 182 171 170 188 206 223 219 233 218 212 205 215 239 254 257 272 274 270 253 249 252 247 238 235 240 249
277 277 276 279 279 277 271 265 271 262 264 264 255 253 254 252 247 241 241 237 238 236 236 234 208 219 219 221 216 215 204 187 188 196 197 192 199 198 198 196 197 198 195 176 171 169 170 172 178 179 180 178 177 179 183 183 181 179 184 178 180 185 187 193 207 218 262 244 202 184 202 244 234 257 268 301 281 262 224 230 220 231 252 251 251